Weather in Tianeti

Georgia     42°06′42″N   44°58′04″E
temp.,
°C
wind,
m/s
gust,
m/s
humid.,
%
clouds,
%
prec.,
mm/h
press.,
hPa
HPBL,
m
22 april, thu
thu2201:00+11nnw0196100 1.7 101850
04:00+11e2397100 4.8 1018145
07:00+11e139998 3.9 1019318
10:00+11ne2297100 5.6 1019308
13:00+15e017888 0.7 1018755
16:00+14wsw1188100 1.1 1016182
19:00+12w229899 1.4 1016138
22:00+8wsw2399100 2.8 1019169
23 april, fri
fri2301:00+6wsw3499100 1.5 1021223
04:00+4wsw359899 2.0 1022262
07:00+4wsw389797 0.0 1023489
10:00+7w478166 0.1 1023706
13:00+13w59480 0.0 10201113
16:00+15w711330 0.0 10191460
19:00+11sw2255100 0.0 102039
22:00+6s00600 0.0 102311
24 april, sat
sat2401:00+6ene21584 0.0 102416
04:00+5ene229190 0.0 102584
07:00+7ne1293100 0.0 1024192
10:00+9ese118499 0.0 1022510
13:00+16sw115176 0.0 10191100
16:00+17wsw24442 0.0 10161359
19:00+14wsw21660 0.0 101731
22:00+9wnw11800 0.0 101911
25 april, sun
sun2501:00+8w00845 0.0 102010
04:00+7ene118892 0.0 102015
07:00+8ene11875 0.0 102031
10:00+16e125635 0.0 1017942
13:00+20e234430 0.0 10151522
16:00+20e34488 0.0 10131426
19:00+16e22685 0.0 101354
22:00+11ene118434 0.0 101614
26 april, mon
mon2601:00+11wsw118158 0.0 101611
04:00+9wnw11916 0.0 101510
07:00+10w11825 0.0 101424
10:00+15w2162100 0.0 1013448
13:00+17wnw2158100 0.0 1012784
16:00+15nne128348 1.6 1011256
19:00+13wnw2193100 1.3 101037
22:00+11w2298100 5.1 101362